Find Tian Lian 1-02

NORAD ID: 37737 Int'l Des: 2011-032 Owner: CAST Country: CN operational
HEOCIRCULAR

Current View

Loading 3D Globe...

About Tian Lian 1-02

Description loading...

Upcoming Passes

Passes for default location (London). Set your location on the main map for personalized predictions.

Altitude History

Loading altitude history...

Two-Line Element Set

1 37737U 11032A 26150.60912235 -.00000181 00000-0 00000-0 0 9997
2 37737 5.5082 67.5791 0006542 269.7468 305.5442 0.99000388 43921
Epoch: May 30, 2026 • Age: 15 hours

Current Status

Altitude 36173.2 km
Velocity 3.06 km/s
Sub-Earth Point 5.47°N, 172.53°E
Launch Date Jul 11, 2011
Age 14.8 years
Type other

Technical Details

Classification Payload
Mass 2500.00 kg
Dry Mass 1060.00 kg
Total Mass 2500.00 kg
Length 6.00 m
Diameter 1.70 m
Span 18.10 m
Shape Box + 2 Pan + Dish
Manufacturer CAST
Bus Type DFH-3
Phase Status In Orbit
Owner/State CAST/CN

Most Searched